Weather in Krasnogvardeyskiy

Russia / Vladimir Oblast     56°30′05″N   40°32′35″E
temp.,
°C
wind,
m/s
gust,
m/s
humid.,
%
clouds,
%
prec.,
mm/h
press.,
hPa
HPBL,
m
3 march, wed
wed300:00−3nw5129288 0.1 1007494
03:00−7nw5129159 0.1 1010385
06:00−8nw6139376 0.0 1011440
09:00−7nw5129288 0.1 1012559
12:00−3nw5108993 0.0 1011791
15:00−1w6109196 0.1 1010940
18:00−2w51195100 0.3 1008600
21:00−3w51393100 0.4 1007583
4 march, thu
thu400:00−2w61291100 0.1 1004684
03:00−2wsw71492100 0.3 1002766
06:000w71498100 1.7 998837
09:00−1wnw61187100 3.3 9981008
12:00−1wnw6108097 0.0 999931
15:00−2nw478798 0.0 999713
18:00−5nw2391100 0.0 100059
21:00−7nnw2393100 0.0 100143
5 march, fri
fri500:00−9n2393100 0.0 100129
03:00−10n2396100 0.0 100343
06:00−13nnw239689 0.0 100532
09:00−11nw239569 0.0 1006122
12:00−7nw238642 0.0 1007384
15:00−6w238667 0.0 1009413
18:00−10sw229188 0.0 100921
21:00−11sw239145 0.0 101122
6 march, sat
sat600:00−11w229461 0.0 101222
03:00−13nw359769 0.0 101393
06:00−16nw369533 0.0 1014119
09:00−16nw369417 0.0 1015235
12:00−11nw358427 0.0 1016381
15:00−9w368317 0.0 1015558
18:00−12wsw348610 0.0 101343
21:00−13sw47875 0.0 1013107
7 march, sun
sun700:00−13ssw499425 0.0 1011176
03:00−11ssw6149048 0.0 1007368
06:00−9ssw81688100 0.0 1003716
09:00−7ssw91589100 0.2 998990
12:00−4ssw101592100 0.3 9931058
15:00−3sw101692100 1.3 9881178
18:00−6wnw91389100 2.5 989890
21:00−11sw5138268 2.7 990332